Вернуться в каталог

CZ-3C DEB

АктивенGTO
NORAD 40170·DEBRIS·🇨🇳 China

Запущен Oct 31, 2010 с Xichang Satellite Launch Center

Loading…

TLE

УстаревшееSource: Space-Track

Эпоха: Sep 14, 2026, 05:15 UTC

1 40170U 10057Y   26257.21935073  .00000216  00000-0  85643-2 0  9994
2 40170  20.3569  75.1861 7125276 196.8554 109.9399  2.23799086107717

Отслеживайте CZ-3C DEB в реальном времени с AllMySat

Download on the App Store